Location: Chaumontel
(49.1247°N, 2.4324°E)
Time: 12:52:41
(UTC+00:00)

IRIDIUM 103 - Visible Passes

Search period start: 14 May 2025 00:00
Search period end: 24 May 2025 00:00
Orbit: 776 x 779 km, 86.4° (Epoch: 14 May)

Date Brightness Start Highest point End Pass type
(mag) Time Alt. Az. Time Alt. Az. Time Alt. Az.
14 May 6.2 00:20:50 14° ESE 00:23:51 22° ENE 00:27:47 10° NNE visible
14 May 4.5 02:01:18 26° SSW 02:04:09 57° W 02:09:19 10° N visible
14 May 6.7 23:48:24 10° E 23:50:42 13° ENE 23:53:01 10° NE visible
15 May 4.3 01:27:56 30° S 01:30:34 85° E 01:35:50 10° N visible
15 May 6.2 03:09:03 10° WSW 03:12:03 15° WNW 03:15:04 10° NNW visible
16 May 4.9 00:54:33 27° SSE 00:57:07 50° E 01:02:10 10° NNE visible
16 May 5.7 02:35:01 15° WSW 02:38:08 25° WNW 02:42:25 10° NNW visible
17 May 5.8 00:21:09 19° SE 00:23:47 30° E 00:28:15 10° NNE visible
17 May 5.0 02:01:37 23° SW 02:04:21 41° W 02:09:18 10° N visible
17 May 6.4 23:47:45 12° ESE 23:50:34 18° ENE 23:53:59 10° NE visible
18 May 4.3 01:28:13 31° SSW 01:30:42 70° W 01:35:56 10° N visible
18 May 6.5 03:11:03 10° W 03:12:28 11° WNW 03:13:53 10° NW visible
18 May 6.8 23:16:44 10° E 23:17:28 10° ENE 23:18:12 10° ENE visible
19 May 4.5 00:54:48 33° SSE 00:57:10 70° E 01:02:22 10° N visible
19 May 6.0 02:35:17 11° WSW 02:38:27 19° WNW 02:42:05 10° NNW visible
20 May 5.2 00:21:23 26° SE 00:23:45 40° E 00:28:37 10° NNE visible
20 May 5.4 02:01:52 19° WSW 02:04:35 30° WNW 02:09:12 10° NNW visible
20 May 6.0 23:47:58 17° ESE 23:50:28 24° E 23:54:36 10° NNE visible
21 May 4.7 01:28:26 29° SW 01:30:52 50° W 01:35:58 10° N visible
21 May 6.6 23:14:32 10° ESE 23:17:18 15° ENE 23:20:04 10° NE visible
22 May 4.3 00:55:00 35° S 00:57:15 86° W 01:02:31 10° N visible
22 May 6.4 02:36:15 10° W 02:38:50 14° WNW 02:41:26 10° NW visible
23 May 4.7 00:21:34 32° SSE 00:23:46 56° E 00:28:53 10° NNE visible
23 May 5.9 02:02:02 15° WSW 02:04:52 22° WNW 02:08:57 10° NNW visible
23 May 5.5 23:48:07 23° SE 23:50:24 33° E 23:55:02 10° NNE visible
